This is the latest recevied weather packets stored in our database for station/object KK7KRZ. If no packets are shown the sender has not sent any weather packets the latest 1 day(s).
| Time | Temp. | Humidity | Pressure | Rain* | Wind** | Luminosity | Snow |
|---|---|---|---|---|---|---|---|
| 1778024044 | 18.33° C | 68% | 1015.4 hPa | 0 mm | 0 m/s | 88 W/m² | - |
| 1778023741 | 18.89° C | 69% | 1015.4 hPa | 0 mm | 0 m/s | 81 W/m² | - |
| 1778023439 | 18.89° C | 69% | 1015.2 hPa | 0 mm | 0 m/s | 81 W/m² | - |
| 1778023135 | 18.89° C | 69% | 1015.3 hPa | 0 mm | 0 m/s | 81 W/m² | - |
| 1778022833 | 18.89° C | 68% | 1015.4 hPa | 0 mm | 0 m/s | 80 W/m² | - |
| 1778022531 | 18.89° C | 66% | 1015.5 hPa | 0 mm | 1.34 m/s, 122° | 89 W/m² | - |
| 1778022228 | 18.89° C | 66% | 1015.5 hPa | 0 mm | 0 m/s | 229 W/m² | - |
| 1778021924 | 18.89° C | 67% | 1015.6 hPa | 0 mm | 0.45 m/s, 141° | 193 W/m² | - |
| 1778021622 | 19.44° C | 66% | 1015.4 hPa | 0 mm | 0.89 m/s, 209° | 217 W/m² | - |
| 1778021316 | 20.56° C | 66% | 1015.4 hPa | 0 mm | 0 m/s | 395 W/m² | - |
| 1778021015 | 18.89° C | 68% | 1015.6 hPa | 0 mm | 0 m/s | 595 W/m² | - |
| 1778020711 | 17.78° C | 70% | 1015.8 hPa | 0 mm | 0.89 m/s, 56° | 578 W/m² | - |
| 1778020409 | 17.78° C | 70% | 1015.8 hPa | 0 mm | 0 m/s | 367 W/m² | - |
| 1778020104 | 18.33° C | 70% | 1015.9 hPa | 0 mm | 0 m/s | 249 W/m² | - |
| 1778019800 | 17.78° C | 74% | 1015.9 hPa | 0 mm | 0 m/s | 249 W/m² | - |
| 1778019498 | 17.78° C | 73% | 1016 hPa | 0 mm | 0 m/s | 248 W/m² | - |
| 1778019194 | 17.78° C | 72% | 1015.9 hPa | 0 mm | 0 m/s | 223 W/m² | - |
| 1778018892 | 17.78° C | 73% | 1015.9 hPa | 0 mm | 0 m/s | 216 W/m² | - |
| 1778018588 | 17.78° C | 76% | 1015.8 hPa | 0 mm | 0 m/s | 216 W/m² | - |
| 1778018287 | 17.22° C | 74% | 1016 hPa | 0 mm | 0 m/s | 198 W/m² | - |
| 1778017984 | 17.78° C | 73% | 1015.9 hPa | 0 mm | 0 m/s | 186 W/m² | - |
| 1778017682 | 17.22° C | 74% | 1016 hPa | 0 mm | 0 m/s | 184 W/m² | - |
| 1778017379 | 17.22° C | 73% | 1015.9 hPa | 0 mm | 0.45 m/s, 127° | 174 W/m² | - |
| 1778017076 | 17.22° C | 75% | 1016 hPa | 0 mm | 0 m/s | 170 W/m² | - |
| 1778016774 | 16.67° C | 75% | 1016 hPa | 0 mm | 0.45 m/s, 171° | 177 W/m² | - |
* Rain latest hour (hover to see other rain measurements)
** Current wind speed in m/s (hover to see current wind gust speed)